Location: Sungai Dangang
(2.7500°N, 113.8333°E)
Time: 01:45:08
(UTC+00:00)

Ariane H10+ - Pass Details

Date: 25 September 2021
Orbit: 237 x 7755 km, 6.8° (Epoch: 21 October)

Event Time Altitude Azimuth Distance (km) Brightness Sun altitude
Exits shadow 18:12:10 48° 121° (ESE) 3,689 5.3 -61.0°
Drops below altitude 10° 18:37:27 10° 93° (E) 9,721 8.0 -54.7°
Sets 18:50:02 0° 90° (E) 11,880 8.7 -51.5°
